Regional Weather Roundup
Issued by NWS

Home | Current Version | Previous Version | Graphics & Text | Print | Product List | Glossary On
Versions: 1 2 3 4 5 6 7 8 9 10 11 12 13 14 15 16 17 18 19 20 21 22 23 24 25 26 27 28 29 30 31 32 33 34 35 36 37 38 39 40 41 42 43 44 45 46 47 48 49 50
000
ASUS43 KDTX 270101
RWRMI
MICHIGAN HOURLY REGIONAL WEATHER ROUNDUP
NATIONAL WEATHER SERVICE DETROIT/PONTIAC MI
900 PM EDT FRI AUG 26 2016

NOTE: "FAIR" INDICATES FEW OR NO CLOUDS BELOW 12,000 FEET WITH NO
SIGNIFICANT WEATHER AND/OR OBSTRUCTION TO VISIBILITY.

MIZ047>049-052>055-059>063-066>070-074>076-081>083-270200-
SOUTHEAST LOWER MICHIGAN

CITY           SKY/WX    TMP DP  RH WIND       PRES   REMARKS
ADRIAN         PTCLDY    75  68  78 CALM      30.14R
ALMA           CLEAR     66  64  93 CALM      30.15R
ANN ARBOR      PTCLDY    69  66  90 CALM      30.13R
BAD AXE        CLEAR     66  63  88 CALM      30.14R
CARO           CLEAR     67  65  96 CALM      30.13R
DETROIT CITY   PTCLDY    80  60  50 CALM      30.12R
DETROIT        MOCLDY    78  62  57 NW5       30.13R
FLINT          PTCLDY    70  63  78 CALM      30.14R
GROSSE ILE     PTCLDY    76  68  77 SW3       30.12R
HILLSDALE      CLOUDY    71  66  86 CALM      30.15S
HOWELL         MOCLDY    72  62  71 CALM      30.15R

CITY           SKY/WX    TMP DP  RH WIND       PRES   REMARKS
JACKSON        CLOUDY    71  68  90 CALM      30.15R
LAMBERTVILLE   CLOUDY    73  67  82 CALM      30.14R
LANSING        CLOUDY    74  62  66 W3        30.15R
LAPEER         FAIR      67  65  93 CALM      30.15R
MASON          PTCLDY    72  63  74 S3        30.14R
MONROE         PTCLDY    71  68  88 CALM      30.12R
MT. CLEMENS    MOCLDY    74  66  75 CALM      30.11R
PONTIAC        MOCLDY    75  63  66 CALM      30.13R
PORT HURON     PTCLDY    66  64  94 CALM      30.13R
TRI CITIES     CLEAR     73  64  73 SW3       30.14R
MIDLAND        FAIR      68  63  84 CALM      30.12R
TROY           MOCLDY    79  58  48 CALM      30.15R
SAGINAW HB     CLEAR     70  63  78 CALM      30.13R
$$
MIZ043>046-050>051-056>058-064>065-071>073-077>080-270200-
SOUTHWEST LOWER MICHIGAN

CITY           SKY/WX    TMP DP  RH WIND       PRES   REMARKS
BATTLE CREEK   CLOUDY    73  65  75 N5        30.15R
BENTON HARBOR  CLOUDY    70  62  76 CALM      30.14R
BIG RAPIDS     CLOUDY    68  57  67 NW3       30.15R
COLDWATER      PTCLDY    71  69  93 CALM      30.14S
FREMONT        FAIR      66  57  72 CALM      30.15R
HOLLAND        CLEAR     65  60  84 NW3       30.16R
GRAND RAPIDS   PTCLDY    72  57  59 W7        30.15R
IONIA          FAIR      71  58  64 W5        30.14R
KALAMAZOO      CLOUDY    72  61  68 N8        30.14R
LUDINGTON      PTCLDY    62  60  91 CALM      30.15R
MARSHALL       CLOUDY    73  66  78 CALM      30.14R
MOUNT PLEASANT CLOUDY    71  60  67 W3        30.13R
MUSKEGON       MOCLDY    68  58  70 N3        30.15R
SOUTH HAVEN    PTCLDY    69  62  79 N3        30.14S
$$
MIZ016>042-270200-
NORTHERN LOWER MICHIGAN

CITY           SKY/WX    TMP DP  RH WIND       PRES   REMARKS
ALPENA         MOCLDY    65  59  81 NE5       30.15R
BEAVER ISLAND  CLOUDY    65  60  84 CALM      30.15S
BELLAIRE       CLOUDY    61  57  86 CALM      30.15S
CADILLAC       PTCLDY    64  55  72 NW3       30.17R
CHARLEVOIX     MOCLDY    65  58  80 CALM      30.18R
FRANKFORT      PTCLDY    63  57  82 CALM      30.14S
GAYLORD        CLOUDY    66  55  67 CALM      30.17R
GRAYLING       MOCLDY    64  57  76 CALM      30.17R
HARBOR SPRINGS MOCLDY    64  58  81 CALM      30.15S
HOUGHTON LAKE  PTCLDY    66  55  67 NW6       30.16R
MANISTEE       PTCLDY    62  59  90 CALM      30.15R
OSCODA         CLEAR     68  64  88 NE6       30.12R
PELLSTON       PTCLDY    61  58  90 CALM      30.15S
ROGERS CITY    MOCLDY    66  60  81 CALM      30.15S
TRAVERSE CITY  MOCLDY    67  55  65 SW3       30.13S
$$
MIZ007>008-015-270200-
EASTERN UPPER MICHIGAN

CITY           SKY/WX    TMP DP  RH WIND       PRES   REMARKS
KINROSS        CLOUDY    61  55  81 NW5       30.16R
MACKINAC ISLAN CLOUDY    65  58  78 NE3       30.15R
NEWBERRY       CLOUDY    61  57  87 N3        30.16R
S. S. MARIE    CLOUDY    62  54  74 NW6       30.15R
MUNISING         N/A     61  57  87 CALM      30.15S
$$
MIZ004>006-011>014-085-270200-
CENTRAL UPPER MICHIGAN

CITY           SKY/WX    TMP DP  RH WIND       PRES   REMARKS
MANISTIQUE     MOCLDY    61  58  92 N3        30.14S
ESCANABA       PTCLDY    65  59  81 CALM      30.13F
MENOMINEE      MOCLDY   N/A N/A N/A CALM      30.14R
SAWYER-GWINN   CLEAR     59  55  88 E3        30.16S
$$
MIZ001>003-009>011-084-270200-
WESTERN UPPER MICHIGAN

CITY           SKY/WX    TMP DP  RH WIND       PRES   REMARKS
IRON MOUNTAIN  MOCLDY    63  55  75 N5        30.14S
HOUGHTON       MOCLDY    58  52  80 CALM      30.14S
COPPER HARBOR    N/A     59  56  89 CALM      30.13S
IRONWOOD       PTCLDY    60  54  80 SE3       30.15F
$$

ABBREVIATIONS USED IN REMARKS
   TC - TEMPERATURE IN CELSIUS
  WCI - WIND CHILL INDEX
   HX - HEAT INDEX
  VSB - VISIBILITY





USA.gov is the U.S. government's official web portal to all federal, state and local government web resources and services.